Weather History for Alexander City, AL

Change the Weather History Date:

Thursday, November 22, 2012

  Actual Average (KAUO) Record (KAUO)
Temperature  
Mean Temperature 56 °F -  
Max Temperature 74 °F - 77 °F (1992)
Min Temperature 39 °F - 23 °F (1968)
Degree Days  
Heating Degree Days 8    
Month to date heating degree days  
Since 1 July heating degree days  
Growing Degree Days 6 (Base 50)    
Moisture  
Dew Point 43 °F    
Average Humidity 68    
Maximum Humidity 90    
Minimum Humidity 29    
Precipitation  
Precipitation 0.00 in - 2.75 in (2004)
Month to date precipitation  
Year to date precipitation  
Sea Level Pressure  
Sea Level Pressure 30.20 in    
Wind  
Wind Speed 0 mph (ESE)    
Max Wind Speed 5 mph    
Max Gust Speed -    
Visibility 9 miles    
Events      
T = Trace of Precipitation, MM = Missing Value Source: NWS Daily Summary

Daily Weather History Graph

Daily Weather History Graph

Search for Another Location

Airport:

Trip Planner

Search our weather history database for the weather conditions in past years. The results will help you decide how hot, cold, wet, or windy it might be!

Date:

Astronomy

Nov. 22, 2012 Rise Set
Actual Time 6:21 AM CST 4:38 PM CST
Civil Twilight 5:54 AM CST 5:05 PM CST
Nautical Twilight 5:24 AM CST 5:35 PM CST
Astronomical Twilight 4:54 AM CST 6:05 PM CST
Moon 1:09 PM CST (11/22) 12:56 AM CST (11/22)
Length of Visible Light 11h 11m
Length of Day
10h 17m
Waxing Gibbous, 71% of the Moon is Illuminated
Nov 22
Waxing Gibbous
Nov 28
Full
Dec 6
Last Quarter
Dec 13
New
Dec 19
First Quarter

Hourly Weather History & Observations

Time (CST) Temp. Dew Point Humidity Pressure Visibility Wind Dir Wind Speed Gust Speed Precip Events Conditions
12:15 AM 46.4 °F 43.2 °F 88% 30.18 in 7.0 mi Calm Calm - N/A   Clear
12:35 AM 47.3 °F 43.7 °F 87% 30.18 in 10.0 mi Calm Calm - N/A   Clear
12:55 AM 45.9 °F 41.9 °F 86% 30.18 in 10.0 mi Calm Calm - N/A   Clear
1:15 AM 43.5 °F 40.3 °F 88% 30.18 in 7.0 mi Calm Calm - N/A   Clear
1:35 AM 42.1 °F 38.3 °F 86% 30.17 in 10.0 mi Calm Calm - N/A   Clear
1:55 AM 43.2 °F 39.6 °F 87% 30.18 in 10.0 mi Calm Calm - N/A   Clear
2:15 AM 42.6 °F 38.8 °F 86% 30.18 in 7.0 mi Calm Calm - N/A   Clear
2:35 AM 42.8 °F 39.2 °F 87% 30.18 in 7.0 mi Calm Calm - N/A   Clear
2:55 AM 42.4 °F 38.8 °F 87% 30.17 in 7.0 mi Calm Calm - N/A   Clear
3:15 AM 42.1 °F 38.8 °F 88% 30.18 in 7.0 mi Calm Calm - N/A   Clear
3:35 AM 40.8 °F 37.2 °F 87% 30.18 in 7.0 mi Calm Calm - N/A   Clear
3:55 AM 41.9 °F 39.0 °F 90% 30.19 in 10.0 mi Calm Calm - N/A   Clear
4:15 AM 41.4 °F 37.9 °F 88% 30.19 in 5.0 mi Calm Calm - N/A   Clear
4:35 AM 41.0 °F 37.6 °F 88% 30.19 in 10.0 mi Calm Calm - N/A   Clear
4:55 AM 41.0 °F 37.6 °F 88% 30.20 in 7.0 mi Calm Calm - N/A   Clear
5:15 AM 40.1 °F 37.0 °F 89% 30.20 in 7.0 mi Calm Calm - N/A   Clear
5:35 AM 39.6 °F 36.5 °F 89% 30.21 in 7.0 mi Calm Calm - N/A   Clear
5:55 AM 39.6 °F 36.3 °F 88% 30.21 in 7.0 mi Calm Calm - N/A   Clear
6:15 AM 39.6 °F 36.1 °F 88% 30.21 in 10.0 mi Calm Calm - N/A   Clear
6:35 AM 39.6 °F 36.3 °F 88% 30.22 in 5.0 mi Calm Calm - N/A   Clear
6:55 AM 41.0 °F 37.4 °F 87% 30.22 in 10.0 mi Calm Calm - N/A   Clear
7:15 AM 43.9 °F 40.6 °F 88% 30.23 in 7.0 mi Calm Calm - N/A   Clear
7:35 AM 42.3 °F 38.8 °F 88% 30.23 in 7.0 mi Calm Calm - N/A   Clear
7:55 AM 49.6 °F 46.0 °F 87% 30.24 in 7.0 mi Calm Calm - N/A   Clear
8:15 AM 53.1 °F 47.8 °F 82% 30.25 in 10.0 mi Calm Calm - N/A   Clear
8:35 AM 57.2 °F 47.8 °F 71% 30.25 in 10.0 mi Calm Calm - N/A   Clear
8:55 AM 59.9 °F 48.2 °F 65% 30.26 in 10.0 mi Calm Calm - N/A   Clear
9:15 AM 62.1 °F 46.8 °F 57% 30.26 in 10.0 mi ESE 3.5 mph - N/A   Clear
9:35 AM 64.8 °F 45.3 °F 49% 30.26 in 10.0 mi ENE 4.6 mph - N/A   Clear
9:55 AM 66.0 °F 44.8 °F 46% 30.26 in 10.0 mi East 3.5 mph - N/A   Clear
10:15 AM 68.2 °F 44.6 °F 43% 30.25 in 10.0 mi East 3.5 mph - N/A   Clear
10:35 AM 69.8 °F 44.8 °F 41% 30.25 in 10.0 mi Calm Calm - N/A   Clear
10:55 AM 69.8 °F 43.5 °F 39% 30.24 in 10.0 mi Calm Calm - N/A   Clear
11:15 AM 70.3 °F 42.1 °F 36% 30.23 in 10.0 mi Calm Calm - N/A   Clear
11:35 AM 70.0 °F 40.8 °F 35% 30.22 in 10.0 mi North 3.5 mph - N/A   Clear
11:55 AM 74.8 °F 43.2 °F 32% 30.22 in 10.0 mi Calm Calm - N/A   Clear
12:15 PM 74.7 °F 43.2 °F 32% 30.21 in 10.0 mi East 4.6 mph - N/A   Clear
12:35 PM 72.9 °F 41.0 °F 32% 30.20 in 10.0 mi Calm Calm - N/A   Clear
12:55 PM 74.8 °F 41.4 °F 30% 30.19 in 10.0 mi WSW 3.5 mph - N/A   Clear
1:15 PM 74.8 °F 41.0 °F 30% 30.18 in 10.0 mi Calm Calm - N/A   Clear
1:35 PM 74.8 °F 40.5 °F 29% 30.18 in 10.0 mi Calm Calm - N/A   Clear
1:55 PM 74.8 °F 40.5 °F 29% 30.17 in 10.0 mi West 4.6 mph - N/A   Clear
2:15 PM 74.8 °F 40.8 °F 29% 30.17 in 10.0 mi Calm Calm - N/A   Clear
2:35 PM 74.8 °F 40.5 °F 29% 30.17 in 10.0 mi South 3.5 mph - N/A   Clear
2:55 PM 74.8 °F 41.2 °F 30% 30.17 in 10.0 mi South 3.5 mph - N/A   Clear
3:15 PM 74.8 °F 43.7 °F 33% 30.17 in 10.0 mi SE 3.5 mph - N/A   Clear
3:35 PM 73.9 °F 43.5 °F 34% 30.18 in 10.0 mi ESE 4.6 mph - N/A   Clear
3:55 PM 71.4 °F 42.4 °F 35% 30.18 in 10.0 mi Calm Calm - N/A   Clear
4:15 PM 69.8 °F 42.6 °F 37% 30.17 in 10.0 mi Calm Calm - N/A   Clear
4:35 PM 68.4 °F 46.2 °F 45% 30.18 in 10.0 mi Calm Calm - N/A   Clear
4:55 PM 61.9 °F 46.4 °F 57% 30.18 in 10.0 mi Calm Calm - N/A   Clear
5:15 PM 60.4 °F 46.4 °F 60% 30.18 in 10.0 mi Calm Calm - N/A   Clear
5:35 PM 59.9 °F 48.4 °F 66% 30.18 in 10.0 mi Calm Calm - N/A   Clear
5:55 PM 56.1 °F 47.3 °F 72% 30.18 in 10.0 mi Calm Calm - N/A   Clear
6:15 PM 55.2 °F 46.8 °F 73% 30.19 in 10.0 mi Calm Calm - N/A   Clear
6:35 PM 54.7 °F 48.7 °F 80% 30.19 in 10.0 mi Calm Calm - N/A   Clear
6:55 PM 54.7 °F 48.7 °F 80% 30.19 in 10.0 mi Calm Calm - N/A   Clear
7:15 PM 52.7 °F 46.2 °F 79% 30.19 in 10.0 mi Calm Calm - N/A   Clear
7:35 PM 54.7 °F 47.1 °F 76% 30.19 in 10.0 mi Calm Calm - N/A   Clear
7:55 PM 52.2 °F 45.5 °F 78% 30.19 in 10.0 mi Calm Calm - N/A   Clear
8:15 PM 50.0 °F 44.4 °F 81% 30.19 in 10.0 mi Calm Calm - N/A   Clear
8:35 PM 52.2 °F 46.4 °F 81% 30.19 in 10.0 mi Calm Calm - N/A   Clear
8:55 PM 49.6 °F 44.4 °F 82% 30.20 in 10.0 mi Calm Calm - N/A   Clear
9:15 PM 49.6 °F 44.1 °F 81% 30.20 in 10.0 mi Calm Calm - N/A   Clear
9:35 PM 49.6 °F 44.4 °F 82% 30.20 in 10.0 mi Calm Calm - N/A   Clear
9:55 PM 49.6 °F 44.8 °F 83% 30.20 in 10.0 mi Calm Calm - N/A   Clear
10:15 PM 49.6 °F 45.5 °F 86% 30.20 in 10.0 mi Calm Calm - N/A   Clear
10:35 PM 49.6 °F 45.1 °F 84% 30.20 in 10.0 mi Calm Calm - N/A   Clear
10:55 PM 49.6 °F 45.7 °F 86% 30.20 in 10.0 mi Calm Calm - N/A   Clear
11:15 PM 49.6 °F 45.0 °F 84% 30.20 in 10.0 mi Calm Calm - N/A   Clear
11:35 PM 49.6 °F 45.5 °F 86% 30.19 in 10.0 mi Calm Calm - N/A   Clear
11:55 PM 47.3 °F 43.2 °F 86% 30.19 in 10.0 mi Calm Calm - N/A   Clear